AirNav   Pilot Hours Calculator
 
 1351 users online  

53A Dr. C P Savage Sr. Airport
Montezuma, Georgia, USA

GOING TO MONTEZUMA?


FAA INFORMATION EFFECTIVE 03 DECEMBER 2020

Location

FAA Identifier: 53A
Lat/Long: 32-18-11.0280N 084-00-26.8850W
32-18.183800N 084-00.448083W
32.3030633,-84.0074681
(estimated)
Elevation: 345.3 ft. / 105.2 m (surveyed)
Variation: 04W (2005)
From city: 1 mile E of MONTEZUMA, GA
Time zone: UTC -5 (UTC -4 during Daylight Saving Time)
Zip code: 31063

Airport Operations

Airport use: Open to the public
Activation date: 09/1962
Control tower: no
ARTCC: ATLANTA CENTER
FSS: MACON FLIGHT SERVICE STATION
NOTAMs facility: MCN (NOTAM-D service available)
Attendance: UNATNDD
Wind indicator: lighted
Segmented circle: no
Lights: ACTVT PAPI RWYS 18 & 36; MIRL RWY 18/36 - CTAF.
Beacon: white-green (lighted land airport)
Operates sunset to sunrise.

Airport Communications

CTAF: 122.9
ATLANTA APPROACH: 124.2
ATLANTA DEPARTURE: 124.2
WX AWOS-3 at ACJ (15 nm SW): 128.375 (229-928-0934)
WX AWOS-3 at PXE (17 nm NE): 123.825 (478-987-8768)
WX AWOS-3 at 6A1 (20 nm NW): 119.525 (478-862-2966)
  • ATLANTA LARGE TRACON PROVIDES APCH/DEP SVC 0615-2300 ON FREQ 124.2/279.6 ; ATLANTA ARTCC PROVIDES APCH/DEP SVC 2300-0615 ON FREQS 134.5/360.75 (MACON RCAG).

Nearby radio navigation aids

VOR radial/distance  VOR name  Freq  Var
VNAr281/26.4VIENNA VORTAC116.5001E
MCNr217/29.6MACON VORTAC114.2001E

 
NDB name  Hdg/Dist  Freq  Var  ID
MONTEZUMA185/3.842604WIZS .. --.. ...
LINDBERGH038/9.324204WLKG .-.. -.- --.
CONEY344/19.840006WOHY --- .... -.--

Airport Services

Parking: tiedowns
Airframe service: NONE
Powerplant service: NONE
Bottled oxygen: NONE
Bulk oxygen: NONE

Runway Information

Runway 18/36

Dimensions: 5003 x 75 ft. / 1525 x 23 m
Surface: asphalt, in good condition
Weight bearing capacity: 
Single wheel: 30.0
Runway edge lights: medium intensity
RUNWAY 18  RUNWAY 36
Latitude: 32-18.596317N32-17.771290N
Longitude: 084-00.443633W084-00.452542W
Elevation: 345.3 ft.337.1 ft.
Traffic pattern: leftleft
Runway heading: 185 magnetic, 181 true005 magnetic, 001 true
Displaced threshold: 783 ft.no
Markings: nonprecision, in good conditionnonprecision, in good condition
Visual slope indicator: 2-light PAPI on left (3.30 degrees glide path)2-light PAPI on left (3.00 degrees glide path)
Touchdown point: yes, no lightsyes, no lights
Obstructions: 47 ft. tree, 576 ft. from runway, 200 ft. right of centerline, 8:1 slope to clear
30:1 TO DTHR
26 ft. pole, 1084 ft. from runway, 250 ft. left of centerline, 34:1 slope to clear

Airport Ownership and Management from official FAA records

Ownership: Publicly-owned
Owner: CITY OF MONTEZUMA
CITY HALL, P.O. BOX 388
MONTEZUMA, GA 31063
Phone 478-472-8144
Manager: LARRY SMITH, MAYOR
CITY HALL, P.O. BOX 388
MONTEZUMA, GA 31063
Phone 478-472-8144

Airport Operational Statistics

Aircraft based on the field: 10
Single engine airplanes: 8
Multi engine airplanes: 2
    
Aircraft operations: avg 96/week *
70% local general aviation
30% transient general aviation
* for 12-month period ending 01 December 2019

Additional Remarks

FOR CD CTC ATLANTA APCH AT 678-364-6132, WHEN APCH CLSD CTC ATLANTA ARTCC AT 770-210-7692.

Instrument Procedures

NOTE: All procedures below are presented as PDF files. If you need a reader for these files, you should download the free Adobe Reader.

NOT FOR NAVIGATION. Please procure official charts for flight.
FAA instrument procedures published for use from 03 December 2020 at 0901Z to 31 December 2020 at 0900Z.

 
IAPs - Instrument Approach Procedures
RNAV (GPS) RWY 18   download (197KB)
RNAV (GPS) RWY 36   download (200KB)
NDB RWY 18   download (188KB)
NOTE: Special Take-Off Minimums/Departure Procedures apply   download (189KB)

Other nearby airports with instrument procedures:

KACJ - Jimmy Carter Regional Airport (15 nm SW)
KPXE - Perry-Houston County Airport (17 nm NE)
6A1 - Butler Municipal Airport (20 nm NW)
KCKF - Crisp County-Cordele Airport (22 nm SE)
KWRB - Robins Air Force Base (29 nm NE)
 
Loc | Ops | Rwys | IFR | FBO | Links
Com | Nav | Svcs | Stats | Notes
Area around 53A (Dr. C P Savage Sr. Airport)
 
Road maps at: MapQuest Bing Google
 
Aerial photo
WARNING: Photo may not be current or correct
Aerial photo of 53A (Dr. C P Savage Sr. Airport)
Do you have a better or more recent aerial photo of Dr. C P Savage Sr. Airport that you would like to share? If so, please send us your photo.

 
Sectional chart

 
Airport distance calculator
Flying to Dr. C P Savage Sr. Airport? Find the distance to fly.

From to 53A

Sunrise and sunset
Times for 03-Dec-2020
 Local
(UTC-5)
 Zulu
(UTC)
Morning civil twilight06:5611:56
Sunrise07:2312:23
Sunset17:3022:30
Evening civil twilight17:5722:57

Current date and time
Zulu (UTC)  03-Dec-2020 21:07:17
Local (UTC-5)  03-Dec-2020 16:07:17
 
METAR
KACJ 
15nm SW 
032050Z AUTO 12004KT 1/4SM HZ VV002 16/07 A3026 RMK AO2
KPXE 
17nm NE 
032055Z AUTO 12005KT 10SM CLR 14/06 A3026 RMK AO2 T01440061
K6A1 
20nm NW 
032055Z AUTO 16007KT 10SM CLR 14/05 A3025 RMK AO2 T01420047
KCKF 
22nm SE 
032055Z AUTO 11004KT 10SM CLR 15/07 A3026 RMK AO2 T01530065
KWRB 
29nm NE 
032056Z 13003KT 10SM BKN250 15/06 A3025 RMK AO2A SLP247 T01460057 57017
KMCN 
29nm NE 
032053Z 12005KT 10SM CLR 15/04 A3025 RMK AO2 SLP245 T01500044 56016
TAF
KWRB 
29nm NE 
031455Z 0315/0419 VRB06KT 9999 FEW030 QNH3035INS BECMG 0400/0401 VRB06KT 9999 BKN020 QNH3021INS BECMG 0408/0409 VRB06KT 4800 BR BKN015 QNH3005INS BECMG 0412/0413 VRB06KT 8000 BR BKN015 QNH3005INS BECMG 0417/0418 13006KT 8000 -SHRA BKN015 QNH2995INS TX11/0319Z TN04/0315Z
KMCN 
29nm NE 
031845Z 0319/0418 12003KT P6SM SKC FM041000 11003KT P6SM BKN070 FM041200 12003KT P6SM BKN025 FM041300 13004KT P6SM BKN020 PROB30 0413/0418 4SM SHRA BR OVC005
NOTAMs
Click for the latest NOTAMs
NOTAMs are issued by the DoD/FAA and will open in a separate window not controlled by AirNav.

 

 
 

Would you like to see your business listed on this page?

 If your business provides an interesting product or service to pilots, flight crews, aircraft, or users of the Dr. C P Savage Sr. Airport, you should consider listing it here.  To start the listing process, click on the button below
 
Add a business
 

Other Pages about Dr. C P Savage Sr. Airport

Update a link
 
Copyright © AirNav, LLC. All rights reserved. Privacy Policy  Contact